Location: Unspecified
(0.0000°N, 0.0000°E)
Time: 15:00:08
(UTC+00:00)

Altair - Pass Details

Date: 28 October 2021
Orbit: 1502 x 1682 km, 47.2° (Epoch: 26 November)

Event Time Altitude Azimuth Distance (km) Brightness Sun altitude
Rises 00:51:51 0° 264° (W) 4,633 - -68.6°
Reaches altitude 10° 00:57:13 10° 290° (WNW) 3,645 - -67.6°
Maximum altitude 01:01:02 13° 315° (NW) 3,405 - -66.8°
Drops below altitude 10° 01:04:53 10° 341° (NNW) 3,657 - -66.0°
Sets 01:10:22 0° 7° (N) 4,662 - -64.9°
